Retour au catalogue

FENGYUN 1C DEB

ActifSSO
NORAD 29973·DEBRIS·🇨🇳 China

Lancé May 10, 1999 depuis Taiyuan Satellite Launch Center

Loading…

Prochains Passages (prochaines 24 heures)

TLE

FraisSource: Space-Track

Époque: Sep 14, 2026, 05:30 UTC

1 29973U 99025KX  26257.22969044  .00000837  00000-0  51789-3 0  9994
2 29973  98.8514 256.7347 0059730  95.8311 324.6710 14.07077781  5912

Suivez FENGYUN 1C DEB en temps réel avec AllMySat

Download on the App Store